Hays, KS

5:02 PM CST on January 18, 2017 (GMT -0600)
Hays Regional

Weather History for KHYS - October, 2012

Change the Weather History Date:

Thursday, October 4, 2012

  Actual Average Record
Temperature  
Mean Temperature 54 °F -  
Max Temperature 64 °F 70 °F 91 °F (2005)
Min Temperature 44 °F 45 °F 28 °F (1999)
Degree Days  
Heating Degree Days 11    
Growing Degree Days 4 (Base 50)    
Moisture  
Dew Point 31 °F    
Average Humidity 46    
Maximum Humidity 62    
Minimum Humidity 33    
Precipitation  
Precipitation 0.00 in - - ()
Sea Level Pressure  
Sea Level Pressure 30.23 in    
Wind  
Wind Speed 18 mph (North)    
Max Wind Speed 28 mph    
Max Gust Speed 36 mph    
Visibility 10 miles    
Events      
Averages and records for this station are not official NWS values.
T = Trace of Precipitation, MM = Missing Value Source: NWS Daily Summary

Daily Weather History Graph

Daily Weather History Graph

Search for Another Location

Airport or City:

Trip Planner

Search our weather history database for the weather conditions in past years. The results will help you decide how hot, cold, wet, or windy it might be!

Date:

Astronomy

Oct. 04, 2012 Rise Set
Actual Time 7:36 AM CDT 7:14 PM CDT
Civil Twilight 7:09 AM CDT 7:40 PM CDT
Nautical Twilight 6:38 AM CDT 8:11 PM CDT
Astronomical Twilight 6:07 AM CDT 8:42 PM CDT
Moon 9:53 PM CDT (10/4) 11:52 AM CDT (10/4)
Length of Visible Light 12h 31m
Length of Day
11h 37m
Waning Gibbous, 82% of the Moon is Illuminated
Oct 4
Waning Gibbous
Oct 8
Last Quarter
Oct 15
New
Oct 21
First Quarter
Oct 29
Full

Hourly Weather History & Observations

Time (CDT) Temp. Windchill Dew Point Humidity Pressure Visibility Wind Dir Wind Speed Gust Speed Precip Events Conditions
12:15 AM 64.4 °F - 42.8 °F 45% 30.01 in 10.0 mi NNW 21.9 mph 28.8 mph N/A   Clear
12:35 AM 60.8 °F - 41.0 °F 48% 30.04 in 10.0 mi North 24.2 mph 35.7 mph N/A   Clear
12:55 AM 59.0 °F - 39.2 °F 48% 30.05 in 10.0 mi NNW 20.7 mph 26.5 mph N/A   Clear
1:15 AM 57.2 °F - 37.4 °F 48% 30.07 in 10.0 mi North 24.2 mph 31.1 mph N/A   Clear
1:35 AM 55.4 °F - 37.4 °F 51% 30.08 in 10.0 mi North 23.0 mph 29.9 mph N/A   Clear
1:55 AM 53.6 °F - 37.4 °F 54% 30.09 in 10.0 mi North 25.3 mph 31.1 mph N/A   Clear
2:15 AM 53.6 °F - 35.6 °F 51% 30.10 in 10.0 mi North 26.5 mph 31.1 mph N/A   Clear
2:35 AM 53.6 °F - 35.6 °F 51% 30.11 in 10.0 mi North 18.4 mph 26.5 mph N/A   Partly Cloudy
2:55 AM 53.6 °F - 35.6 °F 51% 30.13 in 10.0 mi North 20.7 mph 25.3 mph N/A   Mostly Cloudy
3:15 AM 53.6 °F - 35.6 °F 51% 30.13 in 10.0 mi North 19.6 mph 26.5 mph N/A   Overcast
3:35 AM 51.8 °F - 37.4 °F 58% 30.14 in 10.0 mi NNW 27.6 mph 32.2 mph N/A   Overcast
3:55 AM 51.8 °F - 37.4 °F 58% 30.15 in 10.0 mi North 24.2 mph 31.1 mph N/A   Overcast
4:15 AM 50.0 °F - 35.6 °F 58% 30.16 in 10.0 mi North 21.9 mph 29.9 mph N/A   Overcast
4:35 AM 50.0 °F - 35.6 °F 58% 30.17 in 10.0 mi NNW 18.4 mph 25.3 mph N/A   Overcast
4:55 AM 48.2 °F - 35.6 °F 62% 30.19 in 10.0 mi North 24.2 mph 31.1 mph N/A   Overcast
5:15 AM 48.2 °F - 35.6 °F 62% 30.19 in 10.0 mi North 23.0 mph 29.9 mph N/A   Overcast
5:35 AM 48.2 °F - 33.8 °F 58% 30.20 in 10.0 mi North 20.7 mph 32.2 mph N/A   Overcast
5:55 AM 48.2 °F - 33.8 °F 58% 30.21 in 10.0 mi North 17.3 mph 31.1 mph N/A   Overcast
6:15 AM 46.4 °F 39.0 °F 32.0 °F 57% 30.23 in 10.0 mi North 19.6 mph 31.1 mph N/A   Overcast
6:35 AM 46.4 °F 39.0 °F 32.0 °F 57% 30.23 in 10.0 mi North 19.6 mph 26.5 mph N/A   Overcast
6:55 AM 46.4 °F 39.0 °F 32.0 °F 57% 30.25 in 10.0 mi North 19.6 mph 23.0 mph N/A   Overcast
7:15 AM 46.4 °F 38.7 °F 30.2 °F 53% 30.26 in 10.0 mi NNW 20.7 mph 25.3 mph N/A   Overcast
7:35 AM 46.4 °F 39.8 °F 30.2 °F 53% 30.27 in 10.0 mi North 16.1 mph 20.7 mph N/A   Overcast
7:55 AM 46.4 °F 39.2 °F 30.2 °F 53% 30.28 in 10.0 mi North 18.4 mph 25.3 mph N/A   Overcast
8:15 AM 44.6 °F 37.8 °F 30.2 °F 57% 30.29 in 10.0 mi North 15.0 mph 23.0 mph N/A   Overcast
8:35 AM 46.4 °F 40.1 °F 30.2 °F 53% 30.29 in 10.0 mi North 15.0 mph 23.0 mph N/A   Overcast
8:55 AM 46.4 °F 39.8 °F 30.2 °F 53% 30.31 in 10.0 mi NNW 16.1 mph - N/A   Overcast
9:15 AM 46.4 °F 39.8 °F 30.2 °F 53% 30.31 in 10.0 mi North 16.1 mph - N/A   Mostly Cloudy
9:35 AM 48.2 °F - 30.2 °F 50% 30.31 in 10.0 mi North 18.4 mph 21.9 mph N/A   Partly Cloudy
9:55 AM 48.2 °F - 30.2 °F 50% 30.31 in 10.0 mi North 21.9 mph 27.6 mph N/A   Clear
10:15 AM 48.2 °F - 30.2 °F 50% 30.32 in 10.0 mi North 19.6 mph 25.3 mph N/A   Clear
10:35 AM 50.0 °F - 30.2 °F 47% 30.32 in 10.0 mi North 16.1 mph 24.2 mph N/A   Clear
10:55 AM 51.8 °F - 30.2 °F 44% 30.32 in 10.0 mi North 19.6 mph 24.2 mph N/A   Clear
11:15 AM 51.8 °F - 30.2 °F 44% 30.31 in 10.0 mi North 15.0 mph 21.9 mph N/A   Clear
11:35 AM 51.8 °F - 30.2 °F 44% 30.32 in 10.0 mi North 13.8 mph 21.9 mph N/A   Clear
11:55 AM 53.6 °F - 30.2 °F 41% 30.32 in 10.0 mi NNW 17.3 mph - N/A   Clear
12:15 PM 53.6 °F - 32.0 °F 44% 30.32 in 10.0 mi North 13.8 mph 21.9 mph N/A   Clear
12:35 PM 53.6 °F - 30.2 °F 41% 30.31 in 10.0 mi North 16.1 mph 21.9 mph N/A   Clear
12:55 PM 53.6 °F - 30.2 °F 41% 30.31 in 10.0 mi NNE 16.1 mph 20.7 mph N/A   Clear
1:35 PM 55.4 °F - 30.2 °F 38% 30.30 in 10.0 mi North 15.0 mph 21.9 mph N/A   Clear
1:55 PM 55.4 °F - 30.2 °F 38% 30.29 in 10.0 mi North 18.4 mph 21.9 mph N/A   Clear
2:15 PM 55.4 °F - 30.2 °F 38% 30.28 in 10.0 mi NNE 12.7 mph 19.6 mph N/A   Clear
2:35 PM 57.2 °F - 30.2 °F 36% 30.27 in 10.0 mi North 11.5 mph 17.3 mph N/A   Clear
2:55 PM 57.2 °F - 30.2 °F 36% 30.26 in 10.0 mi NNE 11.5 mph - N/A   Clear
3:15 PM 57.2 °F - 30.2 °F 36% 30.25 in 10.0 mi NNE 15.0 mph 19.6 mph N/A   Clear
3:35 PM 57.2 °F - 30.2 °F 36% 30.25 in 10.0 mi North 10.4 mph 18.4 mph N/A   Clear
3:55 PM 57.2 °F - 30.2 °F 36% 30.24 in 10.0 mi NNE 13.8 mph 21.9 mph N/A   Clear
4:15 PM 59.0 °F - 30.2 °F 34% 30.24 in 10.0 mi NNE 13.8 mph - N/A   Clear
4:35 PM 57.2 °F - 30.2 °F 36% 30.24 in 10.0 mi North 13.8 mph 19.6 mph N/A   Clear
4:55 PM 57.2 °F - 30.2 °F 36% 30.23 in 10.0 mi NNE 11.5 mph - N/A   Clear
5:15 PM 57.2 °F - 28.4 °F 33% 30.24 in 10.0 mi NNE 12.7 mph - N/A   Clear
5:35 PM 57.2 °F - 28.4 °F 33% 30.23 in 10.0 mi NNE 10.4 mph - N/A   Clear
5:55 PM 57.2 °F - 30.2 °F 36% 30.23 in 10.0 mi NNE 11.5 mph 16.1 mph N/A   Clear
6:15 PM 57.2 °F - 28.4 °F 33% 30.23 in 10.0 mi NNE 11.5 mph - N/A   Clear
6:35 PM 55.4 °F - 28.4 °F 36% 30.23 in 10.0 mi NE 12.7 mph - N/A   Clear
6:55 PM 55.4 °F - 28.4 °F 36% 30.24 in 10.0 mi ENE 11.5 mph - N/A   Clear
7:15 PM 53.6 °F - 28.4 °F 38% 30.24 in 10.0 mi ENE 10.4 mph - N/A   Clear
7:35 PM 53.6 °F - 28.4 °F 38% 30.25 in 10.0 mi NE 9.2 mph - N/A   Clear
7:55 PM 51.8 °F - 26.6 °F 38% 30.25 in 10.0 mi NE 6.9 mph - N/A   Clear
8:15 PM 48.2 °F - 26.6 °F 43% 30.25 in 10.0 mi NE 5.8 mph - N/A   Clear
8:35 PM 48.2 °F - 28.4 °F 46% 30.25 in 10.0 mi NE 6.9 mph - N/A   Clear
8:55 PM 46.4 °F 42.9 °F 28.4 °F 50% 30.26 in 10.0 mi NNE 6.9 mph - N/A   Clear
9:15 PM 48.2 °F - 28.4 °F 46% 30.26 in 10.0 mi NE 9.2 mph - N/A   Clear
9:35 PM 50.0 °F - 28.4 °F 43% 30.27 in 10.0 mi NNE 9.2 mph - N/A   Clear
9:55 PM 50.0 °F - 28.4 °F 43% 30.28 in 10.0 mi NE 8.1 mph - N/A   Scattered Clouds
10:15 PM 50.0 °F - 30.2 °F 47% 30.27 in 10.0 mi ENE 8.1 mph - N/A   Mostly Cloudy
10:35 PM 50.0 °F - 28.4 °F 43% 30.27 in 10.0 mi NE 9.2 mph - N/A   Scattered Clouds
10:55 PM 50.0 °F - 28.4 °F 43% 30.29 in 10.0 mi NNE 8.1 mph - N/A   Scattered Clouds
11:15 PM 48.2 °F - 30.2 °F 50% 30.28 in 10.0 mi NE 10.4 mph - N/A   Mostly Cloudy
11:35 PM 48.2 °F - 28.4 °F 46% 30.29 in 10.0 mi NE 6.9 mph - N/A   Scattered Clouds
11:55 PM 48.2 °F - 28.4 °F 46% 30.29 in 10.0 mi NE 8.1 mph - N/A   Partly Cloudy